changsha , China , ASIA

  • Wednesday
    September 18

      Overcast

      66 °F

      Northwest

       

  • Thursday
    September 19

    Cloudy  Cloudy

    81 °F  66 °F

    No wind  No wind

        

  • Friday
    September 20

    Overcast  Overcast

    77 °F  66 °F

    No wind  North

        

  • Saturday
    September 21

    Overcast  Cloudy

    72 °F  66 °F

    North  North

        

  • Sunday
    September 22

    Cloudy  Cloudy

    79 °F  66 °F

    North  North

        

  • Monday
    September 23

    Cloudy  Cloudy

    82 °F  66 °F

    North  North

        

  • Tuesday
    September 24

    Cloudy  Cloudy

    86 °F  68 °F

    North  North

        

Date   Weather Temperature Humidity Total_rain Visibility Wind
23:00 Overcast 68°F 86.8% 0mm 999.9km Northwest  3.0m/s
02:00 Overcast 68°F 92% 0mm 999.9km Northwest  3.0m/s
05:00 Overcast 67°F 96.2% 0mm 999.9km North  3.2m/s
08:00 Overcast 68°F 92.1% 0mm 999.9km Northeast  2.1m/s
11:00 Cloudy 80°F 67.9% 0mm 999.9km Northeast  2.5m/s
14:00 Cloudy 80°F 62% 0mm 999.9km Northeast  2.3m/s
17:00 Cloudy 77°F 63.9% 0mm 999.9km Northeast  2.9m/s
20:00 Cloudy 75°F 55.4% 0mm 999.9km Northeast  3.0m/s
23:00 Cloudy 71°F 81.1% 0mm 999.9km Northeast  2.4m/s
02:00 Cloudy 69°F 87.5% 0mm 999.9km Northeast  2.8m/s
05:00 Cloudy 67°F 93.1% 0mm 999.9km Northeast  2.1m/s
08:00 Cloudy 68°F 89.2% 0mm 999.9km Northwest  2.3m/s
11:00 Overcast 73°F 68% 0mm 999.9km Northwest  3.0m/s
14:00 Overcast 77°F 62.8% 0mm 999.9km Northwest  3.5m/s
17:00 Overcast 76°F 63.7% 0mm 999.9km Northwest  4.8m/s
20:00 Overcast 72°F 55.5% 0mm 999.9km Northwest  3.5m/s
23:00 Overcast 68°F 81.7% 0mm 999.9km Northwest  3.2m/s
02:00 Overcast 67°F 89.1% 0mm 999.9km Northwest  3.5m/s
05:00 Overcast 67°F 93.6% 0mm 999.9km Northwest  3.1m/s
08:00 Overcast 67°F 87.4% 0mm 999.9km Northwest  3.0m/s
11:00 Overcast 70°F 59.5% 0mm 999.9km Northwest  4.0m/s
14:00 Overcast 71°F 51.9% 0mm 999.9km Northwest  4.6m/s
17:00 Overcast 70°F 53.3% 0mm 999.9km Northwest  4.4m/s
20:00 Overcast 69°F 46.1% 0mm 999.9km Northwest  2.0m/s
23:00 Cloudy 71°F 77.2% 0mm 999.9km Northwest  3.1m/s
02:00 Cloudy 69°F 86.1% 0mm 999.9km Northwest  2.8m/s
05:00 Cloudy 67°F 93.1% 0mm 999.9km Northwest  2.6m/s
08:00 Cloudy 67°F 83.3% 0mm 999.9km Northwest  2.5m/s
11:00 Cloudy 78°F 60.8% 0mm 999.9km Northeast  3.1m/s
14:00 Cloudy 78°F 53.4% 0mm 999.9km Northeast  4.2m/s
17:00 Cloudy 76°F 54.1% 0mm 999.9km Northeast  3.8m/s
20:00 Cloudy 74°F 46.5% 0mm 999.9km Northeast  2.4m/s
23:00 Cloudy 69°F 75.8% 0mm 999.9km Northeast  2.3m/s
02:00 Cloudy 68°F 85.4% 0mm 999.9km Northeast  2.6m/s
05:00 Cloudy 67°F 92.6% 0mm 999.9km Northeast  1.9m/s
08:00 Cloudy 69°F 85.3% 0mm 999.9km Northeast  1.9m/s
11:00 Cloudy 78°F 47.3% 0mm 999.9km Northeast  3.1m/s
14:00 Cloudy 81°F 37.1% 0mm 999.9km Northeast  3.0m/s
17:00 Cloudy 82°F 39.2% 0mm 999.9km Northeast  3.2m/s
20:00 Cloudy 73°F 34.2% 0mm 999.9km Northeast  3.3m/s
23:00 Cloudy 71°F 63.3% 0mm 999.9km Northeast  2.2m/s
02:00 Cloudy 69°F 86.4% 0mm 999.9km Northeast  1.7m/s
05:00 Cloudy 67°F 71.8% 0mm 999.9km Northeast  2.8m/s
08:00 Cloudy 67°F 61.4% 0mm 999.9km Northeast  2.1m/s
11:00 Cloudy 82°F 49.6% 0mm 999.9km Northeast  2.5m/s
14:00 Cloudy 86°F 24.2% 0mm 999.9km Northeast  3.3m/s
17:00 Cloudy 85°F 31% 0mm 999.9km Northwest  2.9m/s
20:00 Cloudy 74°F 37.7% 0mm 999.9km Northeast  3.0m/s
23:00 Cloudy 73°F 58.7% 0mm 999.9km Northeast  2.5m/s
02:00 Cloudy 70°F 78.7% 0mm 999.9km Northeast  1.7m/s
05:00 Cloudy 68°F 69.9% 0mm 999.9km Northeast  1.9m/s